Total_Precipitation_Accumulation
0.09 0.10 0.06 0.09 0.06 0.02 0.00 0.00 0.00 0.02 0.03 0.02 0.00 0.03 0.09 0.07 0.07 0.31 0.22 0.16 0.16 0.42 0.29 0.41 1.13 0.96 0.99 0.76 0.70 0.63 0.72 0.88 1.03 1.44 1.50 1.09 0.70 0.53 0.19 0.17 0.33 0.92 1.08 0.70 0.87 0.71 0.22 0.08 0.05
0.11 0.22 0.22 0.22 0.07 0.01 0.00 0.00 0.00 0.04 0.05 0.03 0.03 0.07 0.17 0.17 0.05 0.15 0.22 0.21 0.47 0.43 0.49 0.43 1.17 1.08 1.01 0.71 0.61 0.69 0.75 0.76 0.95 1.41 1.44 1.19 0.91 0.37 0.24 0.34 0.43 0.87 1.40 0.93 0.64 0.42 0.16 0.11 0.09
0.24 0.51 0.40 0.20 0.03 0.00 0.00 0.00 0.00 0.00 0.00 0.02 0.05 0.11 0.42 0.26 0.15 0.13 0.21 0.42 0.50 0.67 1.09 1.05 1.28 1.36 1.27 1.11 0.77 0.72 0.80 0.72 0.76 1.12 1.34 1.15 1.00 0.67 0.49 0.42 0.39 0.65 0.83 0.86 0.70 0.44 0.23 0.16 0.12
0.47 0.73 0.48 0.14 0.03 0.00 0.00 0.00 0.00 0.01 0.07 0.14 0.14 0.14 0.44 0.48 0.18 0.17 0.28 0.69 1.21 1.04 1.36 1.68 1.58 1.37 1.25 1.25 0.99 0.83 0.76 0.81 0.85 0.92 1.23 1.37 1.33 1.43 1.09 0.84 0.41 0.27 0.39 0.46 0.67 0.30 0.14 0.09 0.06
0.71 0.51 0.29 0.21 0.03 0.00 0.00 0.00 0.00 0.01 0.03 0.06 0.10 0.25 0.57 0.51 0.32 0.47 0.66 0.79 1.64 1.54 1.26 1.72 2.25 1.83 1.37 1.35 1.21 1.01 0.95 1.12 0.93 1.19 1.36 1.38 1.14 1.46 1.40 0.81 0.31 0.24 0.26 0.47 0.49 0.40 0.19 0.12 0.06
0.79 0.46 0.36 0.31 0.07 0.00 0.00 0.00 0.00 0.00 0.01 0.04 0.17 0.25 0.56 0.83 0.79 0.78 0.87 0.96 1.54 2.36 3.00 2.55 2.92 2.50 1.92 1.65 1.53 1.41 1.30 1.31 1.21 1.33 1.64 1.49 1.42 1.29 1.33 0.88 0.47 0.38 0.35 0.41 0.39 0.38 0.36 0.19 0.14
0.63 0.53 0.33 0.10 0.04 0.01 0.00 0.00 0.00 0.00 0.00 0.01 0.04 0.07 0.39 1.18 1.19 1.20 1.21 1.03 1.12 1.98 1.83 1.90 2.34 2.43 2.00 1.79 1.97 1.72 1.36 1.01 1.07 1.25 1.48 1.24 1.18 1.06 1.16 1.24 0.86 0.83 0.79 0.78 0.65 0.45 0.35 0.27 0.22
0.46 0.60 0.32 0.05 0.03 0.01 0.00 0.00 0.00 0.00 0.00 0.00 0.02 0.15 0.25 0.71 1.20 1.64 1.79 1.64 1.39 1.60 1.96 1.86 1.92 1.70 1.47 1.48 1.93 1.98 2.07 1.62 1.25 1.10 1.02 0.88 0.70 0.63 0.78 0.71 0.75 1.01 1.01 0.78 0.55 0.46 0.49 0.37 0.24
0.75 1.06 0.49 0.07 0.03 0.02 0.00 0.01 0.01 0.01 0.00 0.00 0.00 0.06 0.09 0.14 0.81 1.98 2.81 2.87 1.71 1.50 1.76 2.47 2.34 1.92 1.63 1.63 1.48 1.61 1.82 2.04 2.11 1.58 1.38 1.08 1.23 1.35 1.18 0.84 0.62 0.56 0.72 0.79 0.71 0.62 0.60 0.40 0.14
1.26 1.36 0.33 0.04 0.02 0.03 0.01 0.01 0.01 0.03 0.01 0.08 0.08 0.05 0.05 0.28 0.62 1.66 3.02 3.26 2.39 1.50 1.25 1.69 2.15 1.59 1.51 1.46 1.10 1.07 1.02 1.16 1.50 1.44 1.33 1.47 1.26 1.34 1.57 1.10 0.57 0.54 0.59 0.59 0.88 1.05 0.82 0.30 0.24
1.25 0.83 0.14 0.09 0.14 0.16 0.04 0.03 0.01 0.08 0.11 0.02 0.08 0.09 0.15 0.39 0.51 0.83 1.88 3.09 3.09 2.50 1.56 1.09 1.52 1.57 0.98 1.15 0.90 0.77 0.64 0.77 0.99 0.91 1.14 1.01 1.01 0.90 0.69 0.48 0.42 0.45 0.49 0.45 0.65 0.91 0.85 0.71 0.60
0.98 0.41 0.23 0.19 0.30 0.19 0.07 0.05 0.02 0.04 0.02 0.00 0.10 0.14 0.18 0.34 0.46 0.70 0.88 2.01 2.26 2.82 2.47 1.66 1.15 1.39 1.09 1.10 1.05 0.52 0.31 0.31 0.50 0.80 1.12 0.93 0.78 0.74 0.80 0.66 0.58 0.68 0.68 0.49 0.56 0.52 0.59 0.70 0.72
0.79 0.52 0.42 0.47 0.38 0.29 0.23 0.15 0.04 0.01 0.02 0.03 0.13 0.14 0.19 0.34 0.33 0.58 0.59 0.68 1.26 1.98 3.07 2.80 1.91 1.34 1.25 0.89 1.17 0.66 0.41 0.32 0.29 0.35 0.61 1.41 1.33 1.00 0.93 1.01 0.79 0.65 0.67 0.57 0.57 0.49 0.46 0.37 0.40
0.69 0.75 0.57 0.73 0.55 0.43 0.29 0.17 0.21 0.03 0.06 0.15 0.26 0.31 0.34 0.33 0.36 0.52 0.36 0.42 0.80 1.14 1.65 2.82 2.67 2.22 1.73 1.35 1.68 1.44 0.71 0.51 0.46 0.42 0.31 0.40 1.07 1.35 1.52 1.67 1.93 1.60 0.96 0.76 0.83 0.78 0.81 0.78 0.77
0.77 0.92 1.04 0.93 0.75 0.66 0.44 0.38 0.31 0.06 0.10 0.18 0.28 0.30 0.47 0.42 0.38 0.27 0.49 0.58 0.48 0.66 1.04 1.36 2.23 2.70 2.40 1.77 1.87 2.42 1.90 0.97 0.50 0.52 0.56 0.54 0.60 1.06 1.41 1.99 1.93 1.96 1.87 1.44 1.25 1.41 1.50 1.14 1.00
0.84 1.51 1.54 1.00 1.27 1.01 0.70 0.31 0.09 0.11 0.13 0.11 0.21 0.39 0.57 0.62 0.57 0.48 0.35 0.32 0.53 0.54 0.53 0.94 1.05 1.86 2.14 1.77 1.82 2.13 2.16 1.67 1.00 0.68 0.65 0.70 0.70 0.92 1.11 1.21 1.39 1.41 1.31 1.33 1.16 0.97 1.00 0.97 0.86
0.98 1.31 1.12 0.97 1.02 1.41 0.84 0.24 0.10 0.12 0.17 0.09 0.13 0.34 0.47 0.63 0.58 0.43 0.46 0.56 0.35 0.37 0.49 0.64 1.08 1.03 1.41 1.55 1.67 1.68 1.82 1.85 1.24 0.98 0.77 0.70 0.67 0.52 0.47 0.52 0.63 0.84 0.87 0.91 0.93 0.84 0.83 0.78 0.74
0.69 0.68 0.75 0.78 0.69 1.04 1.13 0.36 0.19 0.15 0.18 0.08 0.05 0.13 0.40 0.58 0.92 0.59 0.50 0.68 0.64 0.48 0.52 0.66 0.57 1.02 1.02 1.55 1.62 1.87 1.66 1.72 1.49 0.98 0.68 0.67 0.80 0.88 0.80 0.61 0.54 0.42 0.40 0.44 0.42 0.46 0.56 0.63 0.50
0.55 0.44 0.65 0.56 0.55 0.64 0.95 0.67 0.24 0.16 0.20 0.18 0.07 0.06 0.23 0.51 1.01 1.24 0.89 0.81 0.91 0.85 0.88 0.71 0.61 0.72 0.96 1.11 0.99 0.99 1.26 1.72 1.88 1.43 1.19 1.13 1.08 1.08 1.00 0.83 0.69 0.52 0.34 0.26 0.26 0.34 0.53 0.74 0.71
0.43 0.40 0.76 0.87 0.71 0.75 0.65 0.86 0.43 0.18 0.16 0.15 0.17 0.13 0.22 0.47 0.89 1.29 1.70 0.90 0.88 1.50 1.77 1.37 1.11 1.01 0.94 1.07 1.00 0.90 1.00 1.20 1.63 1.90 1.50 1.43 1.39 1.29 1.05 0.89 0.88 0.75 0.68 0.60 0.60 0.53 0.56 0.60 0.77
0.36 0.19 0.45 1.27 0.95 0.66 0.52 0.60 0.70 0.27 0.15 0.14 0.18 0.23 0.35 0.56 0.60 1.05 1.84 1.39 1.25 1.72 1.87 1.62 1.51 1.54 1.46 1.48 1.89 1.58 1.60 1.48 1.70 2.11 1.91 1.78 1.54 1.46 1.65 1.97 1.65 1.14 1.16 1.26 1.30 1.36 1.34 1.14 0.92
0.65 0.15 0.48 0.87 0.86 0.71 0.40 0.60 0.44 0.32 0.22 0.16 0.25 0.28 0.31 0.43 0.38 0.60 0.95 1.32 1.45 1.02 1.03 1.53 2.55 2.98 2.12 1.91 2.78 3.41 3.12 2.95 2.71 2.93 2.66 2.11 1.84 1.72 1.88 2.22 2.82 3.28 2.84 2.01 1.71 1.57 1.43 1.53 1.39
0.67 0.33 0.80 0.94 0.75 0.79 0.42 0.78 0.23 0.27 0.24 0.29 0.28 0.17 0.16 0.17 0.34 0.35 0.56 0.83 0.79 0.73 0.77 0.94 1.48 2.35 2.44 2.47 2.68 3.18 3.06 2.44 2.15 2.20 2.78 2.81 2.55 2.09 1.89 1.93 2.04 2.04 2.23 2.70 2.47 2.01 1.90 1.79 1.55
0.24 0.29 0.76 1.25 1.07 1.13 0.31 0.38 0.23 0.23 0.20 0.40 0.32 0.15 0.27 0.23 0.16 0.32 0.31 0.46 0.55 0.67 0.78 0.70 1.00 1.46 2.18 2.44 2.43 2.65 2.89 3.15 2.70 2.20 2.40 2.27 1.90 1.85 1.74 1.58 1.49 1.50 1.53 1.63 1.99 2.01 1.74 1.66 1.72
0.29 0.74 1.61 1.72 1.56 0.79 0.23 0.16 0.15 0.11 0.10 0.26 0.38 0.25 0.36 0.49 0.30 0.37 0.59 0.56 0.66 0.78 0.60 0.62 0.90 1.04 1.51 1.70 2.10 2.21 1.80 2.05 2.14 1.98 1.93 2.04 2.00 1.76 1.68 1.56 1.60 1.51 1.52 1.56 1.64 1.77 1.70 1.53 1.41
0.35 0.69 1.41 1.50 0.59 0.50 0.20 0.26 0.19 0.21 0.19 0.19 0.35 0.47 0.72 0.98 0.55 0.51 0.81 1.02 1.05 0.88 0.85 0.57 0.83 0.93 0.92 0.93 0.99 1.37 1.59 1.96 1.88 1.68 1.58 1.55 1.45 1.56 1.90 1.82 1.79 1.87 1.85 1.83 1.85 1.87 1.88 1.79 1.72
0.34 0.54 0.47 0.82 0.32 0.50 0.38 0.31 0.39 0.41 0.39 0.28 0.38 0.71 0.96 1.05 0.91 0.79 0.86 1.20 1.12 0.89 0.99 0.92 0.89 0.99 0.82 0.85 0.55 0.50 0.58 0.71 0.85 0.90 0.91 1.02 1.29 1.22 1.34 1.47 1.39 1.41 1.44 1.41 1.49 1.50 1.45 1.59 1.67
0.08 0.15 0.45 0.76 0.92 0.60 0.31 0.28 0.69 0.68 0.62 0.63 0.67 0.88 1.00 0.91 1.11 0.97 0.90 0.92 0.86 0.72 0.88 0.94 0.81 0.62 0.58 0.68 0.61 0.27 0.30 0.33 0.39 0.31 0.28 0.30 0.45 0.61 0.72 0.85 0.91 0.98 1.06 1.21 1.31 1.32 1.39 1.52 1.58
0.04 0.15 0.25 0.50 0.69 1.07 0.40 0.25 0.40 0.51 0.55 0.71 0.59 0.76 0.80 0.88 0.84 0.76 0.69 0.63 0.58 0.42 0.60 0.85 0.73 0.61 0.52 0.57 0.74 0.46 0.35 0.33 0.35 0.29 0.13 0.14 0.13 0.16 0.18 0.18 0.27 0.35 0.40 0.54 0.76 0.92 1.10 1.31 1.53
0.02 0.01 0.08 0.61 0.47 0.62 0.54 0.27 0.05 0.17 0.41 0.35 0.41 0.45 0.43 0.51 0.56 0.54 0.56 0.53 0.34 0.47 0.71 1.23 1.11 0.76 0.50 0.51 0.59 0.74 0.58 0.48 0.43 0.41 0.22 0.18 0.19 0.20 0.19 0.18 0.20 0.25 0.27 0.28 0.27 0.33 0.41 0.51 0.63